Погода в Оханске

Россия / Пермский край     57°43′18″N   55°23′19″E
темп.,
°C
ветер,
м/с
пор.,
м/с
влажн.,
%
обл.,
%
осадки,
мм/ч
давл.,
гПа
погр.,
м
16 мая, вс
вс1623:00+20ююз27675 1.1 1017163
02:00+19ююз3116799 0.0 1017256
05:00+16ююз3776100 0.0 1018139
08:00+21ююз395672 0.0 1018330
11:00+27юз583567 0.0 1018819
14:00+30юз6102556 0.0 10172638
17:00+30зюз510265 0.0 10163274
20:00+26юз5123623 0.0 1015793
17 мая, пн
пн1723:00+21юз395411 0.0 1016199
02:00+18ю276322 0.0 1016125
05:00+16ююз27706 0.0 1016139
08:00+19зюз397060 0.6 1017435
11:00+24зюз485193 0.8 10171300
14:00+27зюз5103937 0.0 10162487
17:00+26зсз494188 0.0 10152064
20:00+23зсз3849100 0.1 1016427
18 мая, вт
вт1823:00+17з26673 0.2 1017119
02:00+15ссз117968 0.0 101813
05:00+13сз1187100 0.0 101911
08:00+17ссз236667 0.0 1020476
11:00+20ссз354876 0.0 10201330
14:00+22с45425 0.0 10201590
17:00+23ссв45405 0.0 10201799
20:00+18св46565 0.0 1022640
19 мая, ср
ср1923:00+13всв287655 0.0 1023171
02:00+11в28885 0.0 1024184
05:00+10в39896 0.0 1025258
08:00+13вюв356712 0.0 1026451
11:00+19вюв33475 0.0 1025976
14:00+22вюв333577 0.0 10241387
17:00+23юв333241 0.0 10231480
20:00+20юв2449100 0.0 102288
20 мая, чт
чт2023:00+14юв226596 0.0 102230
02:00+12юв226929 0.0 102217
05:00+11юв226818 0.0 102214
08:00+17ю38575 0.0 1021331
11:00+24ююз58416 0.0 1021921
14:00+26ю683111 0.0 10201653
17:00+25ю69350 0.0 10181663
20:00+22ю61248100 0.0 10171064